Tracking 29892 objects as of 21-Nov-2024
HD Live streaming from Space Station
objects crossing your sky now

FENGYUN 1C DEB

Track FENGYUN 1C DEB now!
10-day predictions


NORAD ID: 29790
Int'l Code: 1999-025CG
Perigee: 740.2 km
Apogee: 850.5 km
Inclination: 99.1 °
Period: 100.6 minutes
Semi major axis: 7166 km
RCS: 0.0742 m2 (small)
Launch date: May 10, 1999
Source: People's Republic of China (PRC)
Launch site: Taiyaun Space Center, China (TSC)

Note: This is SATELLITE DEBRIS
Your satellite tracking list
Your tracking list is empty




NASA's NSSDC Master Catalog

Two Line Element Set (TLE):
1 29790U 99025CG  24325.36245220  .00001484  00000-0  56339-3 0  9998
2 29790  99.1111 293.3550 0076926 220.1030 139.4458 14.31051998929821
Source of the keplerian elements: AFSPC